User: anonymous   Login
Location: Unspecified
(0.0000°N, 0.0000°E)
Time: 21:54:05
(UTC+00:00)
Language:

Yuri 3A - Orbit

View from above orbital plane
View from above orbital plane
View from above satellite
View from above satellite

Ground track
Ground track

The orbit is defined by the following mean orbital elements,

1 20771U          26150.15729083 +.00000000 +00000-0 +00000-0 0 00009
2 20771  15.6143 357.5540 0011523 279.0999  81.2740  0.98811159    09
Epoch (UTC): 30 May 2026 03:46:29
Eccentricity: 0.0011523
inclination: 15.6143°
perigee height: 36152 km
apogee height: 36250 km
right ascension of ascending node: 357.5540°
argument of perigee: 279.0999°
revolutions per day: 0.98811159
mean anomaly at epoch: 81.2740°

The dashed part of the orbit path shows where the satellite is in the earth's shadow,  

DLR